Staples, MN

9:09 PM CST on February 18, 2018 (GMT -0600)
Staples Municipal

Weather History for KSAZ - October, 2012

Change the Weather History Date:

Tuesday, October 30, 2012

  Actual Average Record
Temperature  
Mean Temperature 33 °F -  
Max Temperature 42 °F 44 °F 68 °F (2007)
Min Temperature 24 °F 29 °F 14 °F (1996)
Degree Days  
Heating Degree Days 32    
Moisture  
Dew Point 27 °F    
Average Humidity 78    
Maximum Humidity 100    
Minimum Humidity 57    
Precipitation  
Precipitation 0.00 in - - ()
Sea Level Pressure  
Sea Level Pressure 30.17 in    
Wind  
Wind Speed 3 mph (East)    
Max Wind Speed 7 mph    
Max Gust Speed -    
Visibility 10 miles    
Events      
Averages and records for this station are not official NWS values.
T = Trace of Precipitation, MM = Missing Value Source: NWS Daily Summary

Daily Weather History Graph

Daily Weather History Graph

Search for Another Location

Airport or City:

Trip Planner

Search our weather history database for the weather conditions in past years. The results will help you decide how hot, cold, wet, or windy it might be!

Date:

Astronomy

Oct. 30, 2012 Rise Set
Actual Time 7:58 AM CDT 6:06 PM CDT
Civil Twilight 7:27 AM CDT 6:37 PM CDT
Nautical Twilight 6:51 AM CDT 7:13 PM CDT
Astronomical Twilight 6:16 AM CDT 7:48 PM CDT
Moon 6:31 PM CDT (10/30) 8:50 AM CDT (10/30)
Length of Visible Light 11h 10m
Length of Day
10h 08m
Full, 99% of the Moon is Illuminated
Oct 30
Full
Nov 6
Last Quarter
Nov 13
New
Nov 20
First Quarter
Nov 28
Full

Hourly Weather History & Observations

Time (CDT) Temp. Windchill Dew Point Humidity Pressure Visibility Wind Dir Wind Speed Gust Speed Precip Events Conditions
12:13 AM 30.2 °F 26.7 °F 23.0 °F 75% 30.22 in 10.0 mi East 3.5 mph - N/A   Clear
12:33 AM 30.2 °F - 23.0 °F 75% 30.22 in 10.0 mi Calm Calm - N/A   Clear
12:54 AM 30.2 °F - 21.2 °F 69% 30.23 in 10.0 mi Calm Calm - N/A   Clear
1:13 AM 30.2 °F - 21.2 °F 69% 30.23 in 10.0 mi Calm Calm - N/A   Clear
1:33 AM 28.4 °F - 21.2 °F 74% 30.22 in 10.0 mi Calm Calm - N/A   Clear
1:54 AM 28.4 °F - 21.2 °F 74% 30.22 in 10.0 mi Calm Calm - N/A   Clear
2:33 AM 28.4 °F - 21.2 °F 74% 30.22 in 10.0 mi Calm Calm - N/A   Clear
2:54 AM 28.4 °F 23.3 °F 21.2 °F 74% 30.22 in 10.0 mi East 4.6 mph - N/A   Clear
3:13 AM 30.2 °F 24.3 °F 21.2 °F 69% 30.22 in 10.0 mi East 5.8 mph - N/A   Clear
3:54 AM 30.2 °F 26.7 °F 23.0 °F 75% 30.22 in 10.0 mi East 3.5 mph - N/A   Clear
4:13 AM 30.2 °F - 23.0 °F 75% 30.22 in 10.0 mi Calm Calm - N/A   Clear
4:33 AM 30.2 °F 25.4 °F 24.8 °F 80% 30.22 in 10.0 mi East 4.6 mph - N/A   Clear
4:54 AM 30.2 °F 25.4 °F 26.6 °F 86% 30.22 in 10.0 mi East 4.6 mph - N/A   Clear
5:13 AM 30.2 °F 25.4 °F 26.6 °F 86% 30.22 in 10.0 mi East 4.6 mph - N/A   Clear
5:34 AM 30.2 °F 25.4 °F 28.4 °F 93% 30.21 in 10.0 mi East 4.6 mph - N/A   Clear
5:53 AM 30.2 °F 25.4 °F 28.4 °F 93% 30.21 in 10.0 mi ESE 4.6 mph - N/A   Clear
6:13 AM 30.2 °F - 28.4 °F 93% 30.21 in 10.0 mi Calm Calm - N/A   Clear
6:34 AM 30.2 °F - 28.4 °F 93% 30.21 in 10.0 mi Calm Calm - N/A   Clear
6:53 AM 30.2 °F 26.7 °F 26.6 °F 86% 30.21 in 10.0 mi East 3.5 mph - N/A   Clear
7:13 AM 30.2 °F 26.7 °F 26.6 °F 86% 30.22 in 10.0 mi East 3.5 mph - N/A   Clear
7:34 AM 30.2 °F 26.7 °F 26.6 °F 86% 30.21 in 10.0 mi East 3.5 mph - N/A   Clear
7:53 AM 30.2 °F 26.7 °F 26.6 °F 86% 30.21 in 10.0 mi East 3.5 mph - N/A   Scattered Clouds
8:13 AM 30.2 °F 26.7 °F 26.6 °F 86% 30.21 in 10.0 mi East 3.5 mph - N/A   Scattered Clouds
8:34 AM 30.2 °F 24.3 °F 26.6 °F 86% 30.21 in 10.0 mi East 5.8 mph - N/A   Scattered Clouds
8:53 AM 32.0 °F 25.6 °F 26.6 °F 80% 30.21 in 10.0 mi East 6.9 mph - N/A   Scattered Clouds
9:13 AM 33.8 °F 28.6 °F 26.6 °F 75% 30.21 in 10.0 mi ESE 5.8 mph - N/A   Scattered Clouds
9:53 AM 33.8 °F 28.6 °F 28.4 °F 81% 30.22 in 10.0 mi ESE 5.8 mph - N/A   Mostly Cloudy
10:13 AM 35.6 °F 30.7 °F 28.4 °F 75% 30.21 in 10.0 mi ESE 5.8 mph - N/A   Scattered Clouds
10:34 AM 35.6 °F 31.7 °F 30.2 °F 81% 30.21 in 10.0 mi ESE 4.6 mph - N/A   Clear
10:53 AM 37.4 °F 32.8 °F 30.2 °F 75% 30.20 in 10.0 mi East 5.8 mph - N/A   Scattered Clouds
11:13 AM 37.4 °F 32.8 °F 28.4 °F 70% 30.20 in 10.0 mi ESE 5.8 mph - N/A   Scattered Clouds
11:34 AM 37.4 °F 32.8 °F 28.4 °F 70% 30.21 in 10.0 mi ESE 5.8 mph - N/A   Scattered Clouds
11:53 AM 39.2 °F 35.0 °F 28.4 °F 65% 30.20 in 10.0 mi SE 5.8 mph - N/A   Mostly Cloudy
12:13 PM 39.2 °F 37.0 °F 28.4 °F 65% 30.20 in 10.0 mi ESE 3.5 mph - N/A   Overcast
12:33 PM 41.0 °F 38.0 °F 30.2 °F 65% 30.19 in 10.0 mi ESE 4.6 mph - N/A   Mostly Cloudy
12:53 PM 41.0 °F 38.0 °F 30.2 °F 65% 30.18 in 10.0 mi SE 4.6 mph - N/A   Mostly Cloudy
1:13 PM 41.0 °F 39.0 °F 30.2 °F 65% 30.17 in 10.0 mi ESE 3.5 mph - N/A   Mostly Cloudy
1:33 PM 42.8 °F 40.1 °F 30.2 °F 61% 30.16 in 10.0 mi SE 4.6 mph - N/A   Mostly Cloudy
1:53 PM 42.8 °F 39.3 °F 30.2 °F 61% 30.16 in 10.0 mi East 5.8 mph - N/A   Overcast
2:13 PM 42.8 °F 39.3 °F 28.4 °F 57% 30.16 in 10.0 mi East 5.8 mph - N/A   Overcast
2:33 PM 42.8 °F 39.3 °F 28.4 °F 57% 30.15 in 10.0 mi East 5.8 mph - N/A   Scattered Clouds
2:53 PM 42.8 °F 40.1 °F 28.4 °F 57% 30.14 in 10.0 mi East 4.6 mph - N/A   Scattered Clouds
3:13 PM 42.8 °F 41.1 °F 28.4 °F 57% 30.14 in 10.0 mi ENE 3.5 mph - N/A   Scattered Clouds
3:33 PM 42.8 °F 40.1 °F 30.2 °F 61% 30.14 in 10.0 mi NE 4.6 mph - N/A   Mostly Cloudy
3:54 PM 41.0 °F 39.0 °F 28.4 °F 61% 30.14 in 10.0 mi NE 3.5 mph - N/A   Overcast
4:13 PM 41.0 °F 38.0 °F 30.2 °F 65% 30.14 in 10.0 mi NE 4.6 mph - N/A   Overcast
4:33 PM 39.2 °F 37.0 °F 30.2 °F 70% 30.14 in 10.0 mi NNE 3.5 mph - N/A   Overcast
4:54 PM 39.2 °F - 30.2 °F 70% 30.14 in 10.0 mi Calm Calm - N/A   Overcast
5:13 PM 39.2 °F 37.0 °F 30.2 °F 70% 30.13 in 10.0 mi ENE 3.5 mph - N/A   Overcast
5:33 PM 39.2 °F 37.0 °F 30.2 °F 70% 30.13 in 10.0 mi NNE 3.5 mph - N/A   Overcast
5:54 PM 39.2 °F 37.0 °F 30.2 °F 70% 30.12 in 10.0 mi NNE 3.5 mph - N/A   Overcast
6:13 PM 37.4 °F - 30.2 °F 75% 30.12 in 10.0 mi Calm Calm - N/A   Mostly Cloudy
6:33 PM 37.4 °F - 30.2 °F 75% 30.12 in 10.0 mi Calm Calm - N/A   Scattered Clouds
6:53 PM 33.8 °F - 28.4 °F 81% 30.12 in 10.0 mi Calm Calm - N/A   Clear
7:13 PM 35.6 °F - 30.2 °F 81% 30.12 in 10.0 mi Calm Calm - N/A   Clear
7:34 PM 33.8 °F - 28.4 °F 81% 30.12 in 7.0 mi Calm Calm - N/A   Clear
7:53 PM 32.0 °F - 28.4 °F 87% 30.11 in 5.0 mi Calm Calm - N/A   Scattered Clouds
8:13 PM 32.0 °F - 28.4 °F 87% 30.11 in 10.0 mi Calm Calm - N/A   Scattered Clouds
8:34 PM 26.6 °F 22.6 °F 26.6 °F 100% 30.11 in 10.0 mi WNW 3.5 mph - N/A   Clear
8:53 PM 30.2 °F - 28.4 °F 93% 30.11 in 10.0 mi Calm Calm - N/A   Clear
9:13 PM 30.2 °F - 26.6 °F 86% 30.11 in 10.0 mi Calm Calm - N/A   Scattered Clouds
9:34 PM 28.4 °F - 26.6 °F 93% 30.10 in 10.0 mi Calm Calm - N/A   Clear
9:53 PM 28.4 °F - 26.6 °F 93% 30.09 in 10.0 mi Calm Calm - N/A   Clear
10:13 PM 28.4 °F 24.6 °F 26.6 °F 93% 30.08 in 10.0 mi ENE 3.5 mph - N/A   Clear
10:33 PM 26.6 °F - 24.8 °F 93% 30.08 in 10.0 mi Calm Calm - N/A   Clear
10:53 PM 26.6 °F - 24.8 °F 93% 30.08 in 10.0 mi Calm Calm - N/A   Clear
11:14 PM 24.8 °F - 24.8 °F 100% 30.09 in 10.0 mi Calm Calm - N/A   Clear
11:33 PM 24.8 °F - 24.8 °F 100% 30.09 in 10.0 mi Calm Calm - N/A   Clear
11:53 PM 24.8 °F - 24.8 °F 100% 30.09 in 10.0 mi Calm Calm - N/A   Clear